ORBCOMM-X

Satellite information

Favourite Embed

Satellite Type and Status

PAYLOADIN ORBIT

Key statistics

Satellite ORBCOMM-X at a glance.

Uptime

12409

Days in orbit

Revolutions

≈ 14.4

Per day

Orbit

SSO

Sun Synchronous Orbit

Inclination

98.3

Latest

Satellite identification and parameters

Extended collection of information and parameters for ORBCOMM-X.

Object identification

Identified? True

Debris? False

Object name: ORBCOMM-X

International designator: 1991-050C

Object number (NORAD): 21576

Object ID (CCSDS): 21576

Country: UNITED STATES OF AMERICA (US)

Current information (Y/N): Y

RCS size: MEDIUM

Orbital parameters

Period: 99.773 minutes

Inclination: 98.3427 deg

SMA: 7125.839 km

Apoapsis: 751.072 km

Periapsis: 744.337 km

RAAN: 252.9697 deg

Eccentricy: 0.0004726

Argument of periapsis: 121.3581 deg

Mean anomaly: 238.8073 deg

Mean motion: 14.43273773 rev/day

Mean motion (dot): 0.00000236 rev/day2

B* drag term: 0.00008285 1/REarth

Two-line elements (TLE)

Creation date: July 5, 2025, 10:36 p.m.

Reference frame: TEME

Reference center: EARTH

Epoch: July 5, 2025, 5:58 p.m. UTC

TLE line 0: 0 ORBCOMM-X

TLE line 1: 1 21576U 91050C 25186.74907108 .00000236 00000-0 82850-4 0 9992

TLE line 2: 2 21576 98.3427 252.9697 0004726 121.3581 238.8073 14.43273773785019

Live tracking on map

Real-time ground track for satellite ORBCOMM-X.

In-orbit conjunctions

A list of the most updated potential collisions computed for object ORBCOMM-X.

Target Orbit TCA Probability of collision Miss distance Type
CZ-6A DEB LEO 2025-03-02 15:57:03 0.0004192395 380.0 (m) DEBRIS
COSMOS 2251 DEB LEO 2024-12-17 06:15:15 0.0001689031 153.0 (m) DEBRIS
IRIDIUM 33 DEB LEO 2024-10-24 20:00:51 0.0002104756 783.0 (m) DEBRIS
CZ-6A DEB SSO 2024-09-04 14:44:31 0.0001509272 950.0 (m) DEBRIS
COSMOS 2251 DEB LEO 2024-07-13 21:01:38 0.0001342278 680.0 (m) DEBRIS

Associated space launch

ERS (European Remote Sensing Satellite) are a family of multi-disciplinary Earth Observation Satellites.

ORBCOMM-X was lifted into orbit during the mission ‘Ariane 40 | ERS-1’, on board a Ariane 40 space rocket.

The launch took place on July 17, 1991, 1:46 a.m. from Ariane Launch Area 2.

For more information about the launch, click the button.

Launch to space Ariane 40 | ERS-1
Ariane 40 | ERS-1

Agency: N/A

Status: Launch Successful

Launch date: July 17, 1991, 1:46 a.m. UTC

Rocket: Ariane 40

Launch pad: Ariane Launch Area 2

Location: Guiana Space Centre, French Guiana

...

Latest news about this satellite

There are no fresh news available about this satellite. Check back as we update our databases every day.


Newsletter sign-up

Weekly statistics, charts and insights to help you stay on top of the space industry.